User: anonymous   Login
Location: Unspecified
(0.0000°N, 0.0000°E)
Time: 02:04:34
(UTC+00:00)
Language:

N. Korean satellite - Orbit

View from above orbital plane
View from above orbital plane
View from above satellite
View from above satellite

Ground track
Ground track

The orbit data is extracted from the following two-line orbital elements,

1 39026U 12072A   16209.80554219 +.00001565 +00000-0 +66386-4 0  9994
2 39026 097.2466 232.6554 0040714 243.0013 116.7065 15.23855754200500
Epoch (UTC): 27 July 2016 19:19:58
Eccentricity: 0.0040714
inclination: 97.2466°
perigee height: 466 km
apogee height: 522 km
right ascension of ascending node: 232.6554°
argument of perigee: 243.0013°
revolutions per day: 15.23855754
mean anomaly at epoch: 116.7065°
orbit number at epoch: 20050

The dashed part of the orbit path shows where the satellite is in the earth's shadow,  

DLR